Change the Weather History Date:

Sunday, February 23, 2014

  Actual Average (KARG) Record (KARG)
Temperature  
Mean Temperature 40 °F -  
Max Temperature 48 °F 49 °F 77 °F (2012)
Min Temperature 32 °F 34 °F 19 °F (2015)
Degree Days  
Heating Degree Days 25    
Moisture  
Dew Point 31 °F    
Average Humidity 70    
Maximum Humidity 93    
Minimum Humidity 54    
Precipitation  
Precipitation 0.03 in - - ()
Sea Level Pressure  
Sea Level Pressure 30.11 in    
Wind  
Wind Speed 11 mph (NE)    
Max Wind Speed 24 mph    
Max Gust Speed 29 mph    
Visibility 10 miles    
Events Rain    
Averages and records for this station are not official NWS values.
T = Trace of Precipitation, MM = Missing Value Source: NWS Daily Summary

Daily Weather History Graph

Daily Weather History Graph

Search for Another Location

Airport or City:

Trip Planner

Search our weather history database for the weather conditions in past years. The results will help you decide how hot, cold, wet, or windy it might be!

Date:

Astronomy

Feb. 23, 2014 Rise Set
Actual Time 6:40 AM CST 5:51 PM CST
Civil Twilight 6:14 AM CST 6:17 PM CST
Nautical Twilight 5:44 AM CST 6:47 PM CST
Astronomical Twilight 5:15 AM CST 7:17 PM CST
Moon 1:34 AM CST (2/23) 11:59 AM CST (2/23)
Length of Visible Light 12h 02m
Length of Day
11h 10m
Last Quarter, 38% of the Moon is Illuminated
Feb 23
Last Quarter
Mar 1
New
Mar 8
First Quarter
Mar 16
Full
Mar 23
Last Quarter

Hourly Weather History & Observations

Time (CST) Temp. Windchill Dew Point Humidity Pressure Visibility Wind Dir Wind Speed Gust Speed Precip Events Conditions
12:15 AM 46.4 °F 43.5 °F 35.6 °F 66% 29.95 in 10.0 mi SW 5.8 mph - N/A   Clear
12:35 AM 46.4 °F 42.9 °F 35.6 °F 66% 29.95 in 10.0 mi SW 6.9 mph - N/A   Clear
12:55 AM 46.4 °F 45.2 °F 35.6 °F 66% 29.95 in 10.0 mi WSW 3.5 mph - N/A   Clear
1:15 AM 44.6 °F 42.2 °F 35.6 °F 71% 29.95 in 10.0 mi North 4.6 mph - N/A   Clear
1:35 AM 42.8 °F - 35.6 °F 76% 29.95 in 10.0 mi Calm Calm - N/A   Clear
1:55 AM 42.8 °F 38.0 °F 35.6 °F 76% 29.95 in 10.0 mi NNE 8.1 mph - N/A   Clear
2:15 AM 41.0 °F 34.7 °F 35.6 °F 81% 29.95 in 10.0 mi NNE 10.4 mph - N/A   Clear
2:35 AM 41.0 °F 35.8 °F 35.6 °F 81% 29.95 in 10.0 mi NNE 8.1 mph - N/A   Clear
2:55 AM 42.8 °F 37.0 °F 35.6 °F 76% 29.95 in 10.0 mi NE 10.4 mph - N/A   Clear
3:15 AM 42.8 °F 36.2 °F 35.6 °F 76% 29.94 in 10.0 mi NE 12.7 mph - N/A   Clear
3:35 AM 42.8 °F 37.5 °F 35.6 °F 76% 29.95 in 10.0 mi NNE 9.2 mph - N/A   Clear
3:55 AM 41.0 °F 36.4 °F 35.6 °F 81% 29.94 in 10.0 mi NE 6.9 mph - N/A   Clear
4:15 AM 39.2 °F 33.6 °F 35.6 °F 87% 29.95 in 10.0 mi NNE 8.1 mph - N/A   Clear
4:35 AM 39.2 °F 33.0 °F 35.6 °F 87% 29.96 in 10.0 mi NNE 9.2 mph - N/A   Clear
4:55 AM 39.2 °F 32.5 °F 35.6 °F 87% 29.97 in 10.0 mi NNE 10.4 mph - N/A   Clear
5:15 AM 37.4 °F 29.8 °F 35.6 °F 93% 29.97 in 10.0 mi NNE 11.5 mph - N/A   Clear
5:35 AM 37.4 °F 29.8 °F 33.8 °F 87% 29.99 in 10.0 mi NNE 11.5 mph - N/A   Clear
5:55 AM 37.4 °F 29.8 °F 33.8 °F 87% 30.00 in 10.0 mi North 11.5 mph 17.3 mph N/A   Clear
6:15 AM 39.2 °F 32.0 °F 32.0 °F 75% 30.02 in 10.0 mi NNE 11.5 mph - N/A   Clear
6:35 AM 37.4 °F 28.9 °F 32.0 °F 81% 30.02 in 10.0 mi NNE 13.8 mph - N/A   Clear
6:55 AM 37.4 °F 27.8 °F 32.0 °F 81% 30.02 in 10.0 mi NNE 17.3 mph - N/A   Clear
7:15 AM 37.4 °F 28.9 °F 32.0 °F 81% 30.04 in 10.0 mi NNE 13.8 mph 19.6 mph N/A   Clear
7:35 AM 39.2 °F 30.2 °F 32.0 °F 75% 30.06 in 10.0 mi NNE 17.3 mph 25.3 mph N/A   Clear
7:55 AM 39.2 °F 30.5 °F 32.0 °F 75% 30.08 in 10.0 mi NNE 16.1 mph 23.0 mph N/A   Clear
8:15 AM 39.2 °F 29.8 °F 32.0 °F 75% 30.09 in 10.0 mi NNE 18.4 mph 21.9 mph N/A   Clear
8:35 AM 41.0 °F 31.9 °F 33.8 °F 76% 30.10 in 10.0 mi NNE 19.6 mph 26.5 mph N/A   Unknown
8:55 AM 41.0 °F 31.1 °F 33.8 °F 76% 30.11 in 10.0 mi NNE 23.0 mph 27.6 mph N/A   Unknown
9:15 AM 41.0 °F 30.9 °F 33.8 °F 76% 30.12 in 10.0 mi NE 24.2 mph - N/A   Unknown
9:35 AM 41.0 °F 31.6 °F 35.6 °F 81% 30.12 in 10.0 mi NE 20.7 mph 25.3 mph N/A   Unknown
9:55 AM 41.0 °F 31.6 °F 32.0 °F 70% 30.11 in 9.0 mi NNE 20.7 mph 26.5 mph N/A   Unknown
10:15 AM 42.8 °F 34.5 °F 32.0 °F 66% 30.12 in 10.0 mi NE 18.4 mph 26.5 mph N/A   Partly Cloudy
10:35 AM 42.8 °F 35.1 °F 32.0 °F 66% 30.12 in 10.0 mi NE 16.1 mph 24.2 mph N/A   Clear
10:55 AM 44.6 °F 37.8 °F 32.0 °F 61% 30.13 in 10.0 mi NNE 15.0 mph 25.3 mph N/A   Clear
11:15 AM 44.6 °F 36.1 °F 32.0 °F 61% 30.12 in 10.0 mi NNE 21.9 mph 27.6 mph N/A   Unknown
11:35 AM 46.4 °F 39.2 °F 32.0 °F 57% 30.12 in 10.0 mi NNE 18.4 mph 24.2 mph N/A   Clear
11:55 AM 48.2 °F - 32.0 °F 54% 30.12 in 10.0 mi NNE 18.4 mph 28.8 mph N/A   Unknown
12:15 PM 48.2 °F - 35.6 °F 62% 30.11 in 10.0 mi NE 16.1 mph 26.5 mph N/A   Unknown
12:35 PM 48.2 °F - 33.8 °F 58% 30.11 in 10.0 mi NE 20.7 mph 26.5 mph N/A   Unknown
12:55 PM 48.2 °F - 32.0 °F 54% 30.11 in 10.0 mi NNE 17.3 mph 26.5 mph N/A   Unknown
1:15 PM 46.4 °F 39.8 °F 32.0 °F 57% 30.10 in 10.0 mi NNE 16.1 mph - N/A   Unknown
1:35 PM 46.4 °F 39.2 °F 32.0 °F 57% 30.10 in 10.0 mi ENE 18.4 mph 23.0 mph N/A   Unknown
1:55 PM 46.4 °F 39.8 °F 32.0 °F 57% 30.12 in 10.0 mi NE 16.1 mph - N/A   Unknown
2:15 PM 44.6 °F 36.9 °F 35.6 °F 71% 30.10 in 6.0 mi ENE 18.4 mph - N/A Rain Light Rain
2:35 PM 44.6 °F 38.1 °F 32.0 °F 61% 30.11 in 10.0 mi NE 13.8 mph - N/A   Clear
2:55 PM 44.6 °F 37.8 °F 32.0 °F 61% 30.13 in 10.0 mi NE 15.0 mph - N/A   Clear
3:15 PM 44.6 °F 37.4 °F 32.0 °F 61% 30.12 in 10.0 mi NE 16.1 mph - N/A   Unknown
3:35 PM 42.8 °F 35.4 °F 32.0 °F 66% 30.15 in 7.0 mi NE 15.0 mph - N/A Rain Light Rain
3:55 PM 41.0 °F 34.3 °F 35.6 °F 81% 30.15 in 7.0 mi ENE 11.5 mph - 0.03 in Rain Light Rain
4:15 PM 41.0 °F 33.1 °F 35.6 °F 81% 30.15 in 10.0 mi NE 15.0 mph - N/A   Unknown
4:35 PM 41.0 °F 33.5 °F 33.8 °F 76% 30.16 in 10.0 mi NE 13.8 mph - N/A   Clear
4:55 PM 42.8 °F 36.2 °F 33.8 °F 70% 30.16 in 10.0 mi NE 12.7 mph - N/A   Clear
5:15 PM 42.8 °F 36.2 °F 32.0 °F 66% 30.16 in 10.0 mi NE 12.7 mph - N/A   Clear
5:35 PM 42.8 °F 35.8 °F 32.0 °F 66% 30.17 in 10.0 mi NE 13.8 mph - N/A   Clear
5:55 PM 41.0 °F 33.5 °F 30.2 °F 65% 30.19 in 10.0 mi NE 13.8 mph - N/A   Clear
6:15 PM 39.2 °F 31.2 °F 28.4 °F 65% 30.20 in 10.0 mi NE 13.8 mph - N/A   Clear
6:35 PM 39.2 °F 31.6 °F 28.4 °F 65% 30.21 in 10.0 mi NE 12.7 mph - N/A   Clear
6:55 PM 37.4 °F 28.9 °F 28.4 °F 70% 30.22 in 10.0 mi NE 13.8 mph - N/A   Clear
7:15 PM 37.4 °F 29.3 °F 28.4 °F 70% 30.23 in 10.0 mi NE 12.7 mph - N/A   Clear
7:35 PM 37.4 °F 29.8 °F 26.6 °F 65% 30.24 in 10.0 mi NE 11.5 mph - N/A   Clear
7:55 PM 35.6 °F 27.5 °F 26.6 °F 70% 30.24 in 10.0 mi NE 11.5 mph - N/A   Clear
8:15 PM 35.6 °F 28.6 °F 26.6 °F 70% 30.25 in 10.0 mi NE 9.2 mph - N/A   Clear
8:35 PM 35.6 °F 28.0 °F 24.8 °F 65% 30.25 in 10.0 mi NE 10.4 mph - N/A   Clear
8:55 PM 35.6 °F 28.0 °F 24.8 °F 65% 30.26 in 10.0 mi NE 10.4 mph - N/A   Clear
9:15 PM 35.6 °F 27.5 °F 26.6 °F 70% 30.27 in 10.0 mi NE 11.5 mph - N/A   Clear
9:35 PM 35.6 °F 26.6 °F 24.8 °F 65% 30.28 in 10.0 mi NNE 13.8 mph - N/A   Clear
9:55 PM 33.8 °F 25.3 °F 24.8 °F 70% 30.29 in 10.0 mi NNE 11.5 mph - N/A   Clear
10:15 PM 33.8 °F 25.8 °F 24.8 °F 70% 30.30 in 10.0 mi NNE 10.4 mph - N/A   Clear
10:35 PM 32.0 °F 23.0 °F 24.8 °F 75% 30.30 in 10.0 mi NNE 11.5 mph - N/A   Clear
10:55 PM 33.8 °F 23.2 °F 19.4 °F 56% 30.30 in 10.0 mi NNE 17.3 mph 23.0 mph N/A   Clear
11:15 PM 32.0 °F 22.5 °F 19.4 °F 60% 30.30 in 10.0 mi NNE 12.7 mph 17.3 mph N/A   Clear
11:35 PM 32.0 °F 23.0 °F 19.4 °F 60% 30.29 in 10.0 mi NNE 11.5 mph - N/A   Clear
11:55 PM 32.0 °F 22.1 °F 19.4 °F 60% 30.28 in 10.0 mi NNE 13.8 mph - N/A   Clear